This is the latest recevied weather packets stored in our database for station/object N7WSS. If no packets are shown the sender has not sent any weather packets the latest 10 day(s).
| Time | Temp. | Humidity | Pressure | Rain* | Wind** | Luminosity | Snow |
|---|---|---|---|---|---|---|---|
| 1777281759 | 11.11° C | 48% | 1011.2 hPa | 0 mm | - | - | - |
| 1777281456 | 10.56° C | 48% | 1011.2 hPa | 0 mm | - | - | - |
| 1777281152 | 10.56° C | 49% | 1011.3 hPa | 0 mm | - | - | - |
| 1777280850 | 10.56° C | 48% | 1011.2 hPa | 0 mm | - | - | - |
| 1777280546 | 11.11° C | 48% | 1011.3 hPa | 0 mm | - | - | - |
| 1777280244 | 11.11° C | 47% | 1011.3 hPa | 0 mm | - | - | - |
| 1777279940 | 11.11° C | 47% | 1011.4 hPa | 0 mm | - | - | - |
| 1777279638 | 11.11° C | 47% | 1011.4 hPa | 0 mm | - | - | - |
| 1777279336 | 11.11° C | 49% | 1011.4 hPa | 0 mm | - | - | - |
| 1777279032 | 11.11° C | 49% | 1011.5 hPa | 0 mm | - | - | - |
| 1777278728 | 11.11° C | 48% | 1011.5 hPa | 0 mm | - | - | - |
| 1777278424 | 11.67° C | 47% | 1011.5 hPa | 0 mm | - | - | - |
| 1777278120 | 11.67° C | 47% | 1011.6 hPa | 0 mm | - | - | - |
| 1777277817 | 11.67° C | 47% | 1011.7 hPa | 0 mm | - | - | - |
| 1777277513 | 11.67° C | 48% | 1011.6 hPa | 0 mm | - | - | - |
| 1777277209 | 11.67° C | 47% | 1011.7 hPa | 0 mm | - | - | - |
| 1777276905 | 11.67° C | 47% | 1011.7 hPa | 0 mm | - | - | - |
| 1777276601 | 11.67° C | 46% | 1011.9 hPa | 0 mm | - | - | - |
| 1777276298 | 12.22° C | 46% | 1011.9 hPa | 0 mm | - | - | - |
| 1777275993 | 12.22° C | 45% | 1011.9 hPa | 0 mm | - | - | - |
| 1777275691 | 12.22° C | 45% | 1012 hPa | 0 mm | - | - | - |
| 1777275389 | 12.78° C | 44% | 1011.8 hPa | 0 mm | - | - | - |
| 1777275085 | 12.78° C | 44% | 1011.9 hPa | 0 mm | - | - | - |
| 1777274781 | 12.78° C | 43% | 1011.9 hPa | 0 mm | - | - | - |
| 1777274478 | 13.33° C | 43% | 1011.9 hPa | 0 mm | - | - | - |
* Rain latest hour (hover to see other rain measurements)
** Current wind speed in m/s (hover to see current wind gust speed)